"Pseudo-MPEC" for ZTF02rs

Created 2019 Feb 15 22:18:13 UT using Find_Orb

Click here for an explanation of pseudo-MPECs

 
 Astrometry: 
     ZTF02rs  C2019 02 09.33902009 51 05.07 +22 17 26.1    ~29L3 17.62RUNEOCPI41
     ZTF02rs  C2019 02 09.33936709 51 10.94 +22 16 47.9    ~29L3 17.62RUNEOCPI41
     ZTF02rs  C2019 02 09.35098709 54 25.50 +21 55 21.3    ~29L3 17.53RUNEOCPI41
     ZTF02rs  C2019 02 09.35133409 54 31.18 +21 54 43.0    ~29L3 17.53RUNEOCPI41

Station data:
(I41) Palomar Mountain--ZTF  (N33.357340 W116.859780)  US/California. 1.2-m
   f/2.44 Oschin Schmidt + CCD.

Orbital elements:  ZTF02rs
   Perigee 2019 Feb 8.388576 +/- 34.2 TT =  9:19:33 (JD 2458522.888576)
Epoch 2019 Feb  9.0 TT = JDT 2458523.5                        AutoNEOCP
M  63.02222278 +/- 26               (J2000 equator)
n 103.07452362 +/- 0.422            Peri.    5.55942 +/- 60
a 97237.9845 +/- 5.74e+7            Node    14.30938 +/- 80
e   0.2424235 +/- 0.24              Incl.   30.17639 +/- 1.5
P5029.28m/3.493d           H 33.4   G  0.15   U 12.2  SR
q 73665.2074 +/- 1.64e+7    Q 120810.761 +/- 5.59e+9
From 4 observations 2019 Feb. 9 (17.7 min); mean residual 0".34
Residuals in arcseconds: 
190209 I41  .13-  .10+    190209 I41  .61+  .26-    
190209 I41  .12+  .10-    190209 I41  .60-  .26+    

Ephemerides (geocentric):
Date (UTC) HH   RA              Dec         delta   r     elong  mag " sig PA
---- -- -- --  -------------   -----------  ------ ------ -----  --- ---- ---
2019 02 15 22  06 46 36.590   +30 09 11.60   88502 .98816 133.0 19.0 105d 178
2019 02 15 23  07 09 25.161   +30 08 33.43   90315 .98821 137.8 18.9 104d 178
2019 02 16 00  07 31 16.305   +29 54 02.92   92137 .98826 142.4 18.8 104d 178
2019 02 16 01  07 52 07.939   +29 27 26.96   93955 .98830 146.7 18.7 101d 179
2019 02 16 02  08 11 59.641   +28 50 27.35   95759 .98834 150.8 18.6  94d   2
2019 02 16 03  08 30 52.367   +28 04 38.08   97539 .98838 154.7 18.6  93d   2
2019 02 16 04  08 48 48.135   +27 11 23.92   99285 .98842 158.4 18.5  86d   4
2019 02 16 05  09 05 49.718   +26 11 59.76  100992 .98845 161.8 18.4  85d   5
2019 02 16 06  09 22 00.384   +25 07 30.75  102651 .98848 164.9 18.3  80d   7
2019 02 16 07  09 37 23.668   +23 58 52.83  104257 .98851 167.6 18.3  73d   9
2019 02 16 08  09 52 03.213   +22 46 53.53  105806 .98853 169.6 18.2  70d  11
2019 02 16 09  10 06 02.648   +21 32 12.88  107292 .98855 170.7 18.2  71d  11
2019 02 16 10  10 19 25.497   +20 15 24.34  108713 .98857 170.6 18.3  67d  12
2019 02 16 11  10 32 15.137   +18 56 55.70  110064 .98858 169.4 18.3  68d  12
2019 02 16 12  10 44 34.761   +17 37 09.89  111344 .98859 167.6 18.4  64d  14
2019 02 16 13  10 56 27.362   +16 16 25.77  112550 .98860 165.3 18.5  65d  14
2019 02 16 14  11 07 55.740   +14 54 58.74  113679 .98861 162.9 18.6  65d  14
2019 02 16 15  11 19 02.500   +13 33 01.30  114730 .98861 160.3 18.7  65d  14
2019 02 16 16  11 29 50.066   +12 10 43.57  115702 .98862 157.7 18.8  66d  14
2019 02 16 17  11 40 20.696   +10 48 13.66  116593 .98862 155.1 18.9  66d  14
2019 02 16 18  11 50 36.498   +09 25 38.06  117402 .98861 152.4 19.0  66d  14
2019 02 16 19  12 00 39.439   +08 03 01.91  118128 .98861 149.8 19.1  66d  14
2019 02 16 20  12 10 31.373   +06 40 29.27  118770 .98860 147.1 19.2  66d  13
2019 02 16 21  12 20 14.049   +05 18 03.31  119329 .98859 144.5 19.3  67d  13
2019 02 16 22  12 29 49.126   +03 55 46.51  119802 .98858 141.9 19.4  67d  13
2019 02 16 23  12 39 18.193   +02 33 40.83  120190 .98857 139.3 19.5  67d  13
2019 02 17 00  12 48 42.781   +01 11 47.80  120492 .98855 136.7 19.5  67d  13
2019 02 17 01  12 58 04.371   -00 09 51.26  120708 .98854 134.1 19.6  67d  13
2019 02 17 02  13 07 24.416   -01 31 15.26  120838 .98852 131.5 19.7  67d  13
2019 02 17 03  13 16 44.348   -02 52 23.11  120882 .98850 128.9 19.8  64d  14
2019 02 17 04  13 26 05.591   -04 13 13.70  120840 .98848 126.3 19.8  64d  14
2019 02 17 05  13 35 29.574   -05 33 45.78  120711 .98846 123.7 19.9  64d  14
2019 02 17 06  13 44 57.744   -06 53 57.84  120497 .98843 121.1 20.0  64d  14
2019 02 17 07  13 54 31.572   -08 13 48.02  120196 .98841 118.5 20.0  63d  14
2019 02 17 08  14 04 12.572   -09 33 13.99  119810 .98838 115.8 20.1  63d  14
2019 02 17 09  14 14 02.312   -10 52 12.85  119338 .98835 113.2 20.2  63d  14
2019 02 17 10  14 24 02.419   -12 10 40.95  118781 .98833 110.5 20.3  63d  14
2019 02 17 11  14 34 14.598   -13 28 33.74  118140 .98830 107.7 20.3  62d  14
2019 02 17 12  14 44 40.641   -14 45 45.63  117415 .98827 105.0 20.4  62d  14
2019 02 17 13  14 55 22.440   -16 02 09.73  116607 .98824 102.2 20.5  62d  14
2019 02 17 14  15 06 21.994   -17 17 37.63  115717 .98821  99.4 20.6  61d  14
2019 02 17 15  15 17 41.421   -18 31 59.13  114746 .98818  96.5 20.7  61d  15
2019 02 17 16  15 29 22.963   -19 45 01.90  113695 .98815  93.5 20.8  60d  15
2019 02 17 17  15 41 28.992   -20 56 31.15  112566 .98812  90.5 20.9  59d  13
2019 02 17 18  15 54 02.005   -22 06 09.17  111360 .98808  87.5 21.0  59d  13
2019 02 17 19  16 07 04.620   -23 13 34.89  110080 .98805  84.4 21.1  58d  14
2019 02 17 20  16 20 39.555   -24 18 23.37  108728 .98802  81.1 21.2  58d  14
2019 02 17 21  16 34 49.599   -25 20 05.19  107307 .98799  77.9 21.3  57d  14